Location: Middlebury
(44.0153°N, 73.1678°W)
Time: 00:52:51
(UTC-04:00)

TESLA ROADSTER/FALCON 9H - Visible Passes

Search period start: 17 September 2021 00:00
Search period end: 27 September 2021 00:00
Orbit: 180 x 6939 km, 29.0° (Epoch: 07 February)

Date Brightness Start Highest point End Pass type
(mag) Time Alt. Az. Time Alt. Az. Time Alt. Az.
17 Sep ? 20:06:58 10° SSW 20:10:01 15° S 20:13:02 11° SSE visible
17 Sep ? 21:12:04 10° SW 21:14:55 14° SSW 21:14:55 14° SSW visible
18 Sep ? 20:56:51 10° SSW 20:57:25 10° S 20:57:25 10° S visible
